NUVIEW BRAVO

Last updated on Mon Sep 07 2026 00:03:02 GMT+0000 (Coordinated Universal Time)

1 62457U 24252D 26249.50402795 -.00000231 00000+0 00000+0 0 9999 2 62457 0.0633 163.5141 0001676 19.4229 261.0138 1.00270352 4607
UTC large
Height (km)
Speed (km/s)
/
Latitude / Longitude
Inclination (degrees)
Orbital Period (minutes)
Azimuth
Elevation
Range (km)
Doppler Factor

Next 0 passes for location: London (51.5072 / 0.1276)

No passes found over London.
NUVIEW BRAVO